User: anonymous   Login
Location: Albany
(35.0000°S, 118.0000°E)
Time: 06:52:59
(UTC-04:00)
Language:

ERS-1 Rocket - Orbit

View from above orbital plane
View from above orbital plane
View from above satellite
View from above satellite

Ground track
Ground track

The orbit data is extracted from the following two-line orbital elements,

1 21610U 91050F   15245.17108488  .00000058  00000-0  32670-4 0  9994
2 21610  98.6979 283.3227 0004381  95.4572 305.6179 14.40646641265948
Epoch (UTC): 02 September 2015 04:06:21
Eccentricity: 0.0004381
inclination: 98.6979°
perigee height: 753 km
apogee height: 759 km
right ascension of ascending node: 283.3227°
argument of perigee: 95.4572°
revolutions per day: 14.40646641
mean anomaly at epoch: 305.6179°
orbit number at epoch: 26594

The dashed part of the orbit path shows where the satellite is in the earth's shadow,  

DLR